Wind_Speed
21 20 18 18 17 20 23 19 17 18 16 16 14 12 11 11 10 11 9 13 15 13 11 16 13 15 16 13 16 20 17 12 6 14 23 19 16 15 12 10 10 10 8
18 18 17 16 15 14 17 15 13 15 16 17 17 16 15 14 15 15 14 15 18 17 15 19 15 14 20 19 18 16 18 17 10 13 23 23 17 20 17 15 13 10 5
17 23 21 19 18 18 17 12 13 14 14 15 16 17 18 18 18 19 19 19 21 21 18 16 17 17 17 17 22 21 19 19 18 15 19 19 16 16 22 19 16 12 16
21 22 14 16 13 19 15 14 14 15 17 19 19 20 21 21 21 22 24 24 21 14 14 13 15 16 18 20 20 20 19 16 22 20 16 19 15 13 17 17 16 19 14
15 14 16 16 14 12 13 13 15 16 20 20 20 22 23 24 25 27 28 26 19 10 16 15 11 26 24 21 16 23 23 22 18 20 23 22 19 19 19 16 15 16 18
19 18 14 11 10 10 11 11 14 15 18 19 21 21 23 24 25 26 25 28 27 16 19 16 25 20 14 18 22 24 21 23 26 22 22 21 24 23 19 16 19 17 17
13 10 7 8 6 7 8 7 8 9 11 14 18 20 22 23 26 28 31 30 20 38 34 23 19 20 17 25 21 27 25 24 24 26 22 24 21 27 23 19 21 20 21
8 7 5 5 4 2 2 2 2 5 8 11 14 15 17 17 18 20 23 26 26 30 30 27 24 23 14 12 15 24 27 29 27 23 28 26 14 21 27 22 19 21 18
10 10 10 8 7 6 5 3 2 3 5 9 13 18 19 18 21 20 19 20 21 23 25 28 29 22 23 21 21 20 25 26 27 23 23 30 26 17 20 23 23 26 26
16 14 13 12 9 6 4 1 2 7 9 12 15 15 15 20 22 19 18 19 19 18 21 24 31 29 25 31 29 24 25 20 19 22 22 25 26 29 24 23 24 31 28
13 12 10 9 6 3 4 5 8 12 16 15 16 18 19 21 17 17 17 17 19 20 19 20 21 22 28 29 29 28 27 20 20 23 22 25 28 29 29 25 24 23 22
11 8 8 6 4 4 8 11 14 16 15 19 20 23 24 26 26 21 20 17 17 20 21 20 18 17 17 19 27 26 22 22 22 23 27 27 31 33 31 27 26 25 21
10 9 9 7 10 10 13 15 15 16 19 15 25 23 23 23 23 15 13 13 13 15 17 21 21 20 18 18 16 20 24 24 27 28 30 31 30 31 29 29 29 28 28
9 10 11 9 11 12 12 11 16 16 22 22 17 25 22 22 16 11 17 20 18 18 16 17 21 22 23 26 24 24 25 32 32 34 35 32 28 29 28 27 25 32 33
10 9 7 9 13 10 12 15 18 18 15 17 18 20 19 20 22 26 28 28 25 23 25 26 26 26 25 29 29 31 28 27 33 36 40 31 33 30 33 33 32 29 37
6 5 8 8 11 13 17 17 16 14 17 20 20 16 17 17 21 24 23 24 25 26 26 27 29 28 27 28 29 30 31 33 33 35 42 44 34 35 34 37 38 36 34
5 6 7 10 11 12 13 12 14 15 17 14 15 16 19 18 16 20 23 25 27 27 29 31 33 33 31 29 28 30 32 31 31 32 37 45 46 36 36 37 41 41 38
3 7 5 6 7 10 11 12 12 14 14 16 17 19 21 24 27 29 31 30 29 30 29 30 31 31 33 34 33 34 32 33 34 32 34 38 48 49 43 42 44 45 43
1 3 6 8 6 8 7 9 10 13 15 16 17 17 23 26 29 31 30 29 29 28 30 31 30 32 32 31 33 34 33 32 33 33 36 36 41 50 52 45 44 44 42
5 6 5 6 4 7 7 5 9 12 15 18 17 21 29 32 34 29 29 31 30 29 31 27 26 29 28 25 27 31 35 34 34 34 34 35 39 44 55 52 49 45 44
2 5 6 4 2 2 8 8 11 12 13 17 17 18 26 30 29 30 32 35 36 31 29 28 35 35 34 37 39 40 36 39 39 37 37 35 35 41 50 54 49 51 44
4 2 3 7 9 7 8 7 10 10 13 16 17 20 24 24 30 31 32 34 34 32 29 30 34 33 30 33 36 37 36 36 39 42 41 38 37 40 44 53 55 49 45
3 5 4 5 6 5 4 6 11 12 13 14 16 19 25 27 29 30 30 32 34 31 27 24 28 32 33 32 33 37 40 41 39 39 39 41 40 38 46 51 54 52 49
2 3 3 4 3 5 6 7 8 11 12 12 18 23 26 29 31 32 30 31 33 33 31 26 24 27 29 31 34 36 35 35 36 39 39 40 46 43 42 50 55 55 54
3 1 3 4 4 5 6 7 9 10 12 13 19 24 28 31 34 34 34 34 35 37 35 32 30 28 25 26 31 29 32 31 31 36 37 37 44 45 43 44 50 54 55
2 3 3 3 3 5 5 5 7 10 13 15 18 21 26 31 32 34 36 36 36 35 33 33 36 37 33 32 24 25 30 28 30 31 30 43 38 45 43 43 48 53 55
Wind_Direction
211 224 221 226 224 212 216 225 220 220 223 240 262 263 251 259 255 249 234 224 255 259 225 239 245 215 209 227 220 215 226 246 219 214 205 211 213 223 235 216 242 250 250
210 213 230 227 219 231 222 229 243 240 239 241 253 259 254 251 253 254 253 233 249 252 241 237 251 238 224 212 215 226 225 220 225 190 196 205 218 220 224 237 240 250 289
201 210 218 206 217 211 233 218 230 254 262 258 258 259 261 258 252 256 258 253 239 252 260 252 253 251 242 231 227 219 226 224 220 191 203 210 224 233 222 229 233 205 251
213 226 222 248 237 229 225 237 231 252 254 255 257 257 262 262 255 252 256 257 254 261 264 264 260 263 260 247 233 226 217 222 217 213 216 228 237 242 229 234 221 197 234
211 202 217 227 240 225 215 235 256 251 256 265 262 262 258 260 258 252 250 250 236 201 34 348 359 359 250 230 247 240 227 213 208 216 209 218 221 218 226 230 221 209 212
207 213 230 233 237 236 239 240 271 271 266 267 269 269 264 261 262 264 261 248 227 210 297 345 4 268 274 225 253 241 228 220 207 210 215 215 224 232 231 227 214 218 211
208 218 229 262 257 255 252 259 268 278 278 277 277 278 275 273 272 269 267 250 258 289 272 268 291 257 284 229 246 238 227 223 220 210 209 220 231 231 232 228 213 225 223
129 139 152 152 145 144 165 225 295 322 312 307 306 305 298 296 294 290 281 280 278 271 270 281 282 258 257 233 254 227 218 228 230 224 222 218 223 234 239 246 220 222 230
139 139 139 146 165 163 176 166 85 10 351 344 333 318 314 311 301 295 298 293 288 279 277 275 271 265 246 250 256 250 239 232 235 237 238 232 229 235 228 231 218 217 220
138 148 153 159 160 155 170 148 344 337 341 316 317 337 323 309 291 305 303 294 295 289 282 276 265 266 261 252 258 259 240 237 233 233 236 229 226 229 234 240 237 222 225
167 180 183 175 184 233 269 304 319 325 327 336 332 323 327 331 310 309 309 312 320 291 290 289 285 274 267 252 255 257 251 244 238 237 239 232 226 230 234 235 225 224 220
192 199 211 216 163 253 278 307 321 328 326 327 322 330 332 320 312 294 295 300 315 317 287 283 289 293 289 266 257 257 248 238 241 231 233 235 233 233 237 233 218 216 217
201 214 242 251 258 286 310 324 329 330 320 330 325 323 312 334 335 310 294 294 304 314 310 283 275 274 279 274 275 256 249 249 239 226 228 236 239 242 242 236 223 216 219
222 230 251 273 301 313 309 318 311 309 314 314 313 322 322 315 331 333 335 327 314 309 308 306 292 276 267 272 271 270 256 246 239 234 224 230 234 225 231 238 227 211 219
221 243 264 278 296 291 300 305 313 322 314 319 325 324 321 323 321 315 316 315 313 306 297 292 286 284 271 269 268 270 265 258 242 235 231 222 227 225 228 229 230 222 218
211 257 272 277 291 295 310 309 309 306 322 326 326 327 330 321 325 325 319 315 311 307 300 291 286 282 280 268 268 267 264 261 258 247 239 227 223 222 231 227 228 229 228
236 270 292 288 305 303 310 311 324 324 324 332 341 340 344 339 323 316 307 303 299 299 298 298 293 288 281 279 272 265 264 265 264 259 252 241 223 220 227 229 226 230 228
283 297 274 286 305 309 304 323 329 333 340 328 320 330 328 319 317 314 312 305 305 307 303 302 300 296 284 281 275 271 270 267 261 257 258 251 238 219 220 229 222 226 228
297 259 305 318 304 316 331 329 328 332 336 335 337 336 318 310 309 314 319 318 313 306 304 300 291 294 292 291 286 285 283 276 269 262 253 251 245 222 219 229 225 224 220
279 300 357 341 339 327 327 339 344 329 330 332 342 342 328 321 328 329 329 329 317 304 281 285 287 280 279 279 274 281 283 274 267 263 258 251 244 236 222 222 226 219 223
303 309 353 356 330 295 356 357 338 346 339 339 330 329 328 322 324 329 326 328 327 315 300 285 277 274 278 281 277 274 272 273 270 265 258 259 252 240 230 223 224 223 220
339 253 273 299 291 315 2 4 343 344 346 344 342 341 322 336 348 344 342 338 331 322 305 288 280 279 282 278 279 279 277 269 264 263 258 258 256 247 239 225 224 221 221
26 29 15 313 324 21 30 8 346 343 352 349 346 335 350 355 349 349 349 349 351 346 333 313 295 285 276 279 284 283 278 273 266 258 254 251 251 250 240 228 224 221 215
53 39 33 9 7 4 357 16 352 344 349 358 0 3 1 1 357 358 356 354 353 353 349 343 328 310 290 280 286 284 285 278 266 258 259 259 255 250 247 237 229 228 217
87 84 64 16 29 25 7 6 1 4 1 7 8 10 6 6 10 8 2 357 356 353 350 346 339 323 321 295 282 291 287 282 270 263 264 254 254 251 245 242 231 228 224
67 84 75 60 30 17 12 1 356 348 1 2 359 4 5 4 4 3 2 360 355 356 356 354 353 347 330 306 301 299 291 285 274 265 258 250 257 246 246 241 234 225 223
Height
1544 1548 1550 1552 1555 1558 1560 1562 1563 1564 1564 1563 1563 1565 1568 1569 1570 1571 1572 1573 1573 1573 1573 1572 1572 1573 1573 1574 1575 1576 1578 1580 1579 1579 1583 1585 1587 1586 1588 1588 1588 1590 1591
1542 1547 1548 1551 1553 1555 1557 1560 1560 1561 1562 1563 1564 1565 1567 1568 1568 1569 1569 1570 1568 1569 1569 1569 1569 1570 1570 1571 1571 1573 1574 1574 1576 1577 1578 1581 1585 1585 1587 1587 1587 1588 1588
1541 1543 1546 1549 1551 1554 1555 1557 1559 1559 1560 1560 1561 1562 1563 1564 1565 1565 1565 1565 1565 1566 1568 1568 1567 1566 1566 1566 1567 1568 1569 1571 1573 1572 1572 1576 1580 1581 1583 1585 1585 1586 1587
1538 1542 1545 1545 1547 1550 1553 1555 1556 1556 1557 1557 1557 1558 1559 1560 1560 1560 1559 1559 1561 1568 1563 1561 1564 1564 1564 1563 1563 1562 1563 1564 1568 1570 1569 1571 1573 1575 1576 1579 1581 1583 1584
1538 1541 1542 1543 1545 1547 1550 1552 1552 1553 1553 1553 1553 1553 1553 1553 1552 1551 1552 1555 1553 1553 1557 1557 1557 1554 1553 1556 1556 1560 1559 1559 1560 1564 1567 1566 1568 1570 1571 1574 1576 1579 1582
1536 1538 1540 1542 1543 1545 1547 1548 1549 1549 1549 1549 1549 1548 1548 1548 1546 1546 1545 1542 1538 1540 1542 1550 1547 1547 1540 1541 1550 1555 1553 1554 1555 1557 1561 1564 1562 1564 1568 1571 1574 1576 1577
1534 1536 1539 1540 1542 1543 1545 1546 1546 1546 1546 1545 1545 1543 1543 1541 1541 1539 1536 1529 1533 1540 1536 1532 1533 1533 1538 1543 1545 1547 1548 1550 1551 1553 1556 1561 1560 1559 1562 1566 1570 1573 1575
1534 1536 1538 1540 1541 1543 1544 1545 1544 1544 1544 1544 1542 1541 1539 1537 1535 1533 1532 1531 1528 1529 1529 1528 1531 1534 1536 1537 1539 1540 1540 1544 1546 1549 1552 1556 1557 1558 1558 1561 1565 1570 1572
1533 1536 1537 1540 1541 1542 1543 1542 1542 1542 1542 1541 1539 1537 1535 1533 1531 1530 1528 1527 1525 1525 1524 1523 1526 1528 1530 1533 1535 1535 1538 1538 1542 1544 1548 1551 1553 1554 1556 1557 1560 1563 1566
1532 1536 1537 1539 1540 1541 1541 1541 1540 1540 1539 1538 1537 1535 1533 1530 1527 1526 1524 1523 1521 1520 1520 1520 1521 1521 1525 1529 1528 1531 1532 1533 1537 1539 1542 1544 1546 1549 1551 1552 1555 1557 1560
1534 1537 1539 1539 1540 1541 1541 1539 1538 1537 1536 1535 1534 1532 1529 1527 1523 1521 1520 1518 1516 1516 1515 1515 1515 1515 1518 1521 1522 1524 1525 1530 1533 1535 1537 1539 1541 1544 1545 1547 1549 1552 1555
1533 1536 1538 1538 1539 1540 1539 1537 1536 1534 1533 1531 1529 1527 1525 1523 1520 1517 1515 1515 1514 1512 1511 1512 1513 1513 1513 1514 1515 1517 1520 1524 1528 1530 1531 1533 1534 1537 1539 1542 1545 1548 1551
1532 1535 1535 1536 1537 1537 1536 1535 1533 1531 1530 1529 1527 1523 1523 1520 1516 1514 1514 1514 1511 1510 1510 1509 1509 1509 1509 1509 1510 1513 1515 1518 1521 1524 1525 1525 1528 1530 1533 1536 1541 1544 1545
1531 1533 1533 1534 1534 1534 1533 1532 1531 1530 1528 1526 1524 1522 1520 1518 1516 1514 1512 1511 1509 1508 1507 1505 1504 1504 1505 1506 1506 1506 1507 1509 1512 1515 1518 1521 1524 1526 1527 1529 1534 1538 1540
1529 1530 1531 1532 1532 1531 1530 1530 1529 1527 1525 1523 1521 1519 1517 1516 1513 1511 1508 1507 1505 1502 1500 1500 1499 1499 1499 1499 1498 1499 1500 1502 1502 1506 1509 1514 1517 1520 1521 1523 1527 1531 1533
1528 1529 1530 1529 1529 1528 1527 1527 1526 1523 1522 1521 1519 1517 1515 1514 1511 1509 1506 1503 1500 1498 1495 1493 1492 1492 1491 1491 1491 1491 1492 1493 1494 1496 1500 1504 1508 1513 1514 1517 1519 1523 1525
1524 1526 1526 1526 1526 1525 1524 1522 1520 1520 1520 1518 1516 1514 1512 1509 1505 1503 1500 1496 1494 1492 1489 1487 1484 1482 1483 1482 1482 1482 1482 1483 1486 1487 1489 1492 1498 1504 1507 1509 1510 1514 1517
1523 1524 1524 1523 1523 1523 1520 1520 1520 1519 1516 1514 1513 1512 1509 1504 1501 1499 1495 1491 1488 1485 1482 1479 1476 1474 1472 1472 1472 1473 1474 1475 1475 1478 1479 1481 1485 1492 1496 1499 1500 1503 1508
1522 1521 1520 1521 1521 1521 1520 1519 1518 1516 1516 1515 1513 1510 1504 1502 1499 1495 1490 1485 1482 1479 1477 1475 1472 1468 1466 1463 1463 1463 1463 1464 1465 1467 1469 1470 1473 1478 1483 1488 1491 1496 1500
1518 1519 1519 1519 1519 1518 1518 1516 1516 1515 1514 1512 1510 1506 1500 1496 1493 1488 1484 1480 1475 1471 1468 1466 1463 1462 1461 1460 1459 1456 1455 1455 1455 1456 1458 1460 1462 1465 1470 1475 1480 1485 1489
1518 1516 1517 1517 1515 1515 1516 1516 1515 1514 1511 1509 1506 1504 1500 1495 1491 1485 1480 1474 1468 1462 1458 1456 1454 1452 1452 1452 1451 1451 1451 1448 1446 1447 1448 1450 1453 1454 1457 1463 1469 1473 1480
1516 1514 1514 1515 1515 1515 1515 1516 1513 1510 1508 1506 1504 1502 1497 1492 1486 1480 1475 1468 1461 1455 1451 1447 1444 1443 1442 1442 1441 1439 1439 1440 1439 1436 1438 1440 1442 1445 1447 1450 1455 1461 1467
1513 1513 1513 1514 1515 1515 1514 1513 1510 1508 1507 1505 1503 1498 1492 1488 1483 1477 1471 1464 1456 1449 1443 1439 1436 1434 1434 1433 1431 1429 1427 1427 1427 1428 1426 1427 1430 1433 1436 1439 1444 1448 1453
1513 1514 1514 1514 1514 1513 1511 1511 1510 1507 1504 1502 1499 1495 1490 1485 1479 1473 1466 1461 1454 1448 1441 1435 1430 1427 1423 1422 1420 1418 1416 1414 1415 1414 1418 1418 1419 1421 1424 1427 1430 1436 1440
1512 1512 1512 1513 1513 1512 1511 1510 1508 1505 1502 1500 1496 1493 1488 1482 1476 1470 1463 1457 1450 1443 1437 1431 1426 1420 1415 1411 1409 1407 1404 1404 1404 1404 1404 1403 1407 1409 1411 1415 1418 1423 1429
1512 1513 1513 1513 1512 1512 1510 1509 1506 1503 1500 1497 1494 1490 1486 1480 1474 1468 1461 1454 1447 1440 1434 1428 1421 1416 1409 1403 1398 1396 1395 1393 1393 1393 1393 1390 1395 1396 1399 1403 1406 1410 1415